Location: Hohe Wand Waldeggerhaus
(47.8500°N, 16.0440°E)
Time: 22:44:23
(UTC+01:00)

ISS - Visible Passes

Search period start: 02 February 2023 00:00
Search period end: 12 February 2023 00:00
Orbit: 412 x 419 km, 51.6° (Epoch: 02 February)

Date Brightness Start Highest point End Pass type
(mag) Time Alt. Az. Time Alt. Az. Time Alt. Az.
02 Feb -3.3 17:43:31 10° WNW 17:46:52 64° SSW 17:50:12 10° SE visible
02 Feb -0.8 19:21:36 10° WSW 19:23:03 12° SW 19:24:23 10° SSW visible
03 Feb -1.1 18:32:03 10° W 18:34:32 19° SW 18:37:01 10° S visible
04 Feb -1.7 17:42:58 10° W 17:45:57 29° SW 17:48:55 10° SSE visible
06 Feb -0.5 17:43:02 10° WSW 17:44:46 13° SW 17:46:29 10° SSW visible
